Flag for U.S.A. Weather past 2 weeks in Reston, Virginia, U.S.A.

Now
57 °F

Passing clouds.


Feels Like: 57 °F
Forecast: 60 / 81 °F
Wind: 3 mph from South

Location: Washington-Dulles International Airport

Current Time: May 6, 2015 at 6:29:06 AM

Latest Report: May 6, 2015 at 5:58 AM


Visibility: 0 mi

Pressure: 30.19 "Hg

Humidity: 94%

Dew point: 55 °F

Location of RestonLocation

Historic Weather in Reston — Graph

°F

Reston temperature yesterday

Maximum temperature yesterday: 82 °F (at 1:52 PM)
Minimum temperature yesterday: 59 °F (at 6:52 AM)
Average temperature yesterday: 70 °F

Past Weeks' High & Low Weather Summary

 TemperatureHumidityPressure
High83 °F (May 4, 1:52 PM)97% (Apr 26, 1:52 AM)30.26 "Hg (Apr 26, 1:52 AM)
Low36 °F (Apr 23, 5:52 AM)20% (Apr 24, 5:52 PM)29.59 "Hg (Apr 22, 12:52 PM)
Average56 °F55%29.90 "Hg
* Reported Apr 21 4:52 AM — May 6 4:52 AM, Reston, Weather by CustomWeather, © 2015

Note: Actual official high and low records may vary slightly from our data, if they occured in-between our weather recording intervals... More about our weather records

Advertising

Reston weather history for previous 24 hours

 ConditionsComfort  
Time TempWeatherWind HumidityBarometerVisibility
4:52 AM
Wed, May 6
61 °FFog.3 mph93%30.19 "Hg6 mi
3:52 AM62 °FFog.No wind93%30.19 "Hg6 mi
2:52 AM62 °FClear.5 mph96%30.20 "Hg8 mi
1:52 AM63 °FPassing clouds.6 mph93%30.21 "Hg10 mi
12:52 AM63 °FPassing clouds.N/A93%30.23 "Hg10 mi
11:52 PM
Tue, May 5
65 °FPassing clouds.8 mph91%30.24 "Hg10 mi
10:52 PM65 °FPassing clouds.N/A91%30.24 "Hg10 mi
9:52 PM64 °FPassing clouds.5 mph94%30.24 "Hg10 mi
8:52 PM67 °FPartly sunny.5 mph89%30.23 "Hg10 mi
5:52 PM69 °FThunderstorms. Broken clouds.10 mph81%30.20 "Hg10 mi
4:52 PM82 °FBroken clouds.6 mph41%30.17 "Hg10 mi
3:52 PM82 °FPartly sunny.No wind41%30.18 "Hg10 mi
2:52 PM82 °FScattered clouds.3 mph41%30.20 "Hg10 mi
1:52 PM82 °FScattered clouds.3 mph43%30.22 "Hg10 mi
12:52 PM80 °FSunny.3 mph45%30.24 "Hg10 mi
11:52 AM78 °FBroken clouds.No wind48%30.26 "Hg10 mi
10:52 AM77 °FPartly sunny.No wind52%30.26 "Hg10 mi
9:52 AM71 °FOvercast.No wind57%30.26 "Hg10 mi
8:52 AM68 °FPassing clouds.6 mph65%30.26 "Hg10 mi
7:52 AM64 °FScattered clouds.3 mph75%30.25 "Hg10 mi
6:52 AM59 °FPassing clouds.No wind81%30.23 "Hg10 mi
Weather by CustomWeather, © 2015

See weather overviewHow to use our weather pages